STARLINK-4091 (52830 NORAD) Tracking and Keplerian Element Data

This shows tracking and keplerian element data for the satellite.

Feedback or suggestion? Click here.




ElementValue
Catalog52830
NameSTARLINK-4091
Epoch Orbit1283
Epoch Day248.25001157
Epoch Year2022
RAAN26.7211
Inclination53.2154
Eccentricity0.0001283
Argument of Perigee71.1969
Mean Anonmoly102.1153
Mean Motion15.0884114
Decay Rate0.00056264
L11 52830U 22062A 22248.25001157 .00056264 00000+0 35251-2 0 9999
L22 52830 53.2154 26.7211 0001283 71.1969 102.1153 15.08841140 12835

Live tracking and technical data element details for STARLINK-4091 (NORAD 52830). STARLINK-4091 can be tracked NOW for your location showing map with azimuth and elevation plus other details from your city location.

Track the satellite on the map from your city or location and see movement details for azimuth, elevation, latitude, longitude, range, height, and movement on the map or in text.







IsCatalogInMostPopularTable: catalog: 52830, numindb: 3
Update: records affected: 1



GetName: 52830 STARLINK-4091

Hit Count: updated at: Sun, 25 Sep 2022 07:36:25 GMT